owner,sensor,date,latitude,longitude,vertical_datum,direction_of_sea_water_velocity,sea_water_speed,upward_sea_water_velocity,qcFlag 
TABS,ioos:station:wmo:42049:1,2003-03-01T00:00:00Z,28.3507,-96.0058,2.0,222.0635931,24.43433036,-99999.0,'11111222,11111222,99999999' 
TABS,ioos:station:wmo:42049:1,2003-03-01T00:30:00Z,28.3507,-96.0058,2.0,234.5082738,18.70541365,-99999.0,'11111222,11111222,99999999' 
TABS,ioos:station:wmo:42049:1,2003-03-01T01:30:00Z,28.3507,-96.0058,2.0,238.1578234,24.50831084,-99999.0,'11111222,11111222,99999999' 
TABS,ioos:station:wmo:42049:1,2003-03-01T02:00:00Z,28.3507,-96.0058,2.0,246.9008827,24.11314994,-99999.0,'11111222,11111222,99999999' 
TABS,ioos:station:wmo:42049:1,2003-03-01T03:00:00Z,28.3507,-96.0058,2.0,250.956093,25.00870249,-99999.0,'11111222,11111222,99999999' 
TABS,ioos:station:wmo:42049:1,2003-03-01T03:30:00Z,28.3507,-96.0058,2.0,248.8509954,21.84104622,-99999.0,'11111222,11111222,99999999' 
TABS,ioos:station:wmo:42049:1,2003-03-01T04:00:00Z,28.3507,-96.0058,2.0,249.2027026,21.71483594,-99999.0,'11111222,11111222,99999999' 
TABS,ioos:station:wmo:42049:1,2003-03-01T04:30:00Z,28.3507,-96.0058,2.0,246.7081928,21.06683175,-99999.0,'11111222,11111222,99999999' 
TABS,ioos:station:wmo:42049:1,2003-03-01T05:00:00Z,28.3507,-96.0058,2.0,245.0260444,22.38272995,-99999.0,'11111222,11111222,99999999' 
TABS,ioos:station:wmo:42049:1,2003-03-01T05:30:00Z,28.3507,-96.0058,2.0,240.8763003,20.23869808,-99999.0,'11111222,11111222,99999999' 
TABS,ioos:station:wmo:42049:1,2003-03-01T06:00:00Z,28.3507,-96.0058,2.0,245.7215211,22.30241691,-99999.0,'11111222,11111222,99999999' 
TABS,ioos:station:wmo:42049:1,2003-03-01T06:30:00Z,28.3507,-96.0058,2.0,248.8367773,21.66084948,-99999.0,'11111222,11111222,99999999' 
TABS,ioos:station:wmo:42049:1,2003-03-01T07:00:00Z,28.3507,-96.0058,2.0,237.3038903,20.93753806,-99999.0,'11111222,11111222,99999999' 
TABS,ioos:station:wmo:42049:1,2003-03-01T07:30:00Z,28.3507,-96.0058,2.0,242.5336775,21.61650527,-99999.0,'11111222,11111222,99999999' 
TABS,ioos:station:wmo:42049:1,2003-03-01T08:00:00Z,28.3507,-96.0058,2.0,231.8560926,23.57382447,-99999.0,'11111222,11111222,99999999' 
TABS,ioos:station:wmo:42049:1,2003-03-01T08:30:00Z,28.3507,-96.0058,2.0,236.1401398,22.50705889,-99999.0,'11111222,11111222,99999999' 
TABS,ioos:station:wmo:42049:1,2003-03-01T09:00:00Z,28.3507,-96.0058,2.0,230.0659661,22.90073361,-99999.0,'11111222,11111222,99999999' 
TABS,ioos:station:wmo:42049:1,2003-03-01T09:30:00Z,28.3507,-96.0058,2.0,236.3398574,26.25119045,-99999.0,'11111222,11111222,99999999' 
TABS,ioos:station:wmo:42049:1,2003-03-01T10:00:00Z,28.3507,-96.0058,2.0,235.1603835,24.89163112,-99999.0,'11111222,11111222,99999999' 
TABS,ioos:station:wmo:42049:1,2003-03-01T10:30:00Z,28.3507,-96.0058,2.0,235.7999515,23.69772985,-99999.0,'11111222,11111222,99999999' 
TABS,ioos:station:wmo:42049:1,2003-03-01T11:00:00Z,28.3507,-96.0058,2.0,228.2198195,23.41391894,-99999.0,'11111222,11111222,99999999' 
TABS,ioos:station:wmo:42049:1,2003-03-01T11:30:00Z,28.3507,-96.0058,2.0,236.0037057,21.81944316,-99999.0,'11111222,11111222,99999999' 
TABS,ioos:station:wmo:42049:1,2003-03-01T12:00:00Z,28.3507,-96.0058,2.0,232.8501653,24.5902928,-99999.0,'11111222,11111222,99999999' 
TABS,ioos:station:wmo:42049:1,2003-03-01T13:00:00Z,28.3507,-96.0058,2.0,237.1755684,20.92013384,-99999.0,'11111222,11111222,99999999' 
TABS,ioos:station:wmo:42049:1,2003-03-01T13:30:00Z,28.3507,-96.0058,2.0,242.6115536,18.36895751,-99999.0,'11111222,11111222,99999999' 
TABS,ioos:station:wmo:42049:1,2003-03-01T14:00:00Z,28.3507,-96.0058,2.0,248.1829932,20.96129051,-99999.0,'11111222,11111222,99999999' 
TABS,ioos:station:wmo:42049:1,2003-03-01T14:30:00Z,28.3507,-96.0058,2.0,240.0036787,22.64275822,-99999.0,'11111222,11111222,99999999' 
TABS,ioos:station:wmo:42049:1,2003-03-01T15:00:00Z,28.3507,-96.0058,2.0,243.0010211,24.23072636,-99999.0,'11111222,11111222,99999999' 
TABS,ioos:station:wmo:42049:1,2003-03-01T15:30:00Z,28.3507,-96.0058,2.0,247.9723519,21.19728756,-99999.0,'11111222,11111222,99999999' 
TABS,ioos:station:wmo:42049:1,2003-03-01T16:00:00Z,28.3507,-96.0058,2.0,251.7676824,23.20493913,-99999.0,'11111222,11111222,99999999' 
TABS,ioos:station:wmo:42049:1,2003-03-01T16:30:00Z,28.3507,-96.0058,2.0,249.1066332,24.47957924,-99999.0,'11111222,11111222,99999999' 
TABS,ioos:station:wmo:42049:1,2003-03-01T17:00:00Z,28.3507,-96.0058,2.0,261.7941456,24.73320238,-99999.0,'11111222,11111222,99999999' 
TABS,ioos:station:wmo:42049:1,2003-03-01T17:30:00Z,28.3507,-96.0058,2.0,259.0352397,21.13582031,-99999.0,'11111222,11111222,99999999' 
TABS,ioos:station:wmo:42049:1,2003-03-01T18:00:00Z,28.3507,-96.0058,2.0,255.7871134,22.07569704,-99999.0,'11111222,11111222,99999999' 
TABS,ioos:station:wmo:42049:1,2003-03-01T18:30:00Z,28.3507,-96.0058,2.0,265.801469,23.22230824,-99999.0,'11111222,11111222,99999999' 
TABS,ioos:station:wmo:42049:1,2003-03-01T19:00:00Z,28.3507,-96.0058,2.0,257.8180972,20.75737218,-99999.0,'11111222,11111222,99999999' 
TABS,ioos:station:wmo:42049:1,2003-03-01T19:30:00Z,28.3507,-96.0058,2.0,262.9596382,20.88747232,-99999.0,'11111222,11111222,99999999' 
TABS,ioos:station:wmo:42049:1,2003-03-01T20:00:00Z,28.3507,-96.0058,2.0,259.2509088,18.82020723,-99999.0,'11111222,11111222,99999999' 
TABS,ioos:station:wmo:42049:1,2003-03-01T20:30:00Z,28.3507,-96.0058,2.0,253.5330744,17.21611164,-99999.0,'11111222,11111222,99999999' 
TABS,ioos:station:wmo:42049:1,2003-03-01T21:00:00Z,28.3507,-96.0058,2.0,244.4428699,21.0938593,-99999.0,'11111222,11111222,99999999' 
TABS,ioos:station:wmo:42049:1,2003-03-01T21:30:00Z,28.3507,-96.0058,2.0,244.9604631,18.64200097,-99999.0,'11111222,11111222,99999999' 
TABS,ioos:station:wmo:42049:1,2003-03-01T22:00:00Z,28.3507,-96.0058,2.0,253.6604121,17.9864171,-99999.0,'11111222,11111222,99999999' 
TABS,ioos:station:wmo:42049:1,2003-03-01T22:30:00Z,28.3507,-96.0058,2.0,244.4619456,22.19877925,-99999.0,'11111222,11111222,99999999' 
TABS,ioos:station:wmo:42049:1,2003-03-01T23:00:00Z,28.3507,-96.0058,2.0,237.5543699,23.74677241,-99999.0,'11111222,11111222,99999999' 
TABS,ioos:station:wmo:42049:1,2003-03-01T23:30:00Z,28.3507,-96.0058,2.0,245.8980863,20.08056025,-99999.0,'11111222,11111222,99999999' 
TABS,ioos:station:wmo:42049:1,2003-03-02T00:00:00Z,28.3507,-96.0058,2.0,247.4903796,25.10235447,-99999.0,'11111222,11111222,99999999' 
TABS,ioos:station:wmo:42049:1,2003-03-02T00:30:00Z,28.3507,-96.0058,2.0,246.694743,24.0632583,-99999.0,'11111222,11111222,99999999' 
TABS,ioos:station:wmo:42049:1,2003-03-02T01:00:00Z,28.3507,-96.0058,2.0,247.5303317,23.41777316,-99999.0,'11111222,11111222,99999999' 
TABS,ioos:station:wmo:42049:1,2003-03-02T01:30:00Z,28.3507,-96.0058,2.0,254.2968829,23.3515053,-99999.0,'11111222,11111222,99999999' 
TABS,ioos:station:wmo:42049:1,2003-03-02T02:00:00Z,28.3507,-96.0058,2.0,246.7493378,23.28064003,-99999.0,'11111222,11111222,99999999' 
TABS,ioos:station:wmo:42049:1,2003-03-02T02:30:00Z,28.3507,-96.0058,2.0,248.0030143,22.34670669,-99999.0,'11111222,11111222,99999999' 
TABS,ioos:station:wmo:42049:1,2003-03-02T03:00:00Z,28.3507,-96.0058,2.0,245.2018156,21.17221764,-99999.0,'11111222,11111222,99999999' 
TABS,ioos:station:wmo:42049:1,2003-03-02T03:30:00Z,28.3507,-96.0058,2.0,252.8324199,18.29509224,-99999.0,'11111222,11111222,99999999' 
TABS,ioos:station:wmo:42049:1,2003-03-02T04:00:00Z,28.3507,-96.0058,2.0,244.2050762,17.62628151,-99999.0,'11111222,11111222,99999999' 
TABS,ioos:station:wmo:42049:1,2003-03-02T05:00:00Z,28.3507,-96.0058,2.0,256.5805883,18.01174062,-99999.0,'11111222,11111222,99999999' 
TABS,ioos:station:wmo:42049:1,2003-03-02T06:00:00Z,28.3507,-96.0058,2.0,246.5307115,20.03758468,-99999.0,'11111222,11111222,99999999' 
TABS,ioos:station:wmo:42049:1,2003-03-02T06:30:00Z,28.3507,-96.0058,2.0,247.1570911,15.63627193,-99999.0,'11111222,11111222,99999999' 
TABS,ioos:station:wmo:42049:1,2003-03-02T07:00:00Z,28.3507,-96.0058,2.0,248.9121481,17.28772108,-99999.0,'11111222,11111222,99999999' 
TABS,ioos:station:wmo:42049:1,2003-03-02T07:30:00Z,28.3507,-96.0058,2.0,256.4055217,19.48589233,-99999.0,'11111222,11111222,99999999' 
TABS,ioos:station:wmo:42049:1,2003-03-02T08:00:00Z,28.3507,-96.0058,2.0,253.5410068,17.78890666,-99999.0,'11111222,11111222,99999999' 
TABS,ioos:station:wmo:42049:1,2003-03-02T08:30:00Z,28.3507,-96.0058,2.0,250.2497935,18.46623947,-99999.0,'11111222,11111222,99999999' 
TABS,ioos:station:wmo:42049:1,2003-03-02T09:00:00Z,28.3507,-96.0058,2.0,244.9983901,17.69836151,-99999.0,'11111222,11111222,99999999' 
TABS,ioos:station:wmo:42049:1,2003-03-02T09:30:00Z,28.3507,-96.0058,2.0,242.0333275,16.82473477,-99999.0,'11111222,11111222,99999999' 
TABS,ioos:station:wmo:42049:1,2003-03-02T10:00:00Z,28.3507,-96.0058,2.0,241.0232367,16.36909588,-99999.0,'11111222,11111222,99999999' 
TABS,ioos:station:wmo:42049:1,2003-03-02T10:30:00Z,28.3507,-96.0058,2.0,238.860142,19.00899261,-99999.0,'11111222,11111222,99999999' 
TABS,ioos:station:wmo:42049:1,2003-03-02T11:00:00Z,28.3507,-96.0058,2.0,248.0037114,21.33280338,-99999.0,'11111222,11111222,99999999' 
TABS,ioos:station:wmo:42049:1,2003-03-02T11:30:00Z,28.3507,-96.0058,2.0,240.560442,20.69176889,-99999.0,'11111222,11111222,99999999' 
TABS,ioos:station:wmo:42049:1,2003-03-02T12:00:00Z,28.3507,-96.0058,2.0,246.4628283,20.90960067,-99999.0,'11111222,11111222,99999999' 
TABS,ioos:station:wmo:42049:1,2003-03-02T12:30:00Z,28.3507,-96.0058,2.0,247.8343519,18.42134903,-99999.0,'11111222,11111222,99999999' 
TABS,ioos:station:wmo:42049:1,2003-03-02T13:00:00Z,28.3507,-96.0058,2.0,242.9334317,17.38385745,-99999.0,'11111222,11111222,99999999' 
TABS,ioos:station:wmo:42049:1,2003-03-02T13:30:00Z,28.3507,-96.0058,2.0,250.5249235,21.08637712,-99999.0,'11111222,11111222,99999999' 
TABS,ioos:station:wmo:42049:1,2003-03-02T14:00:00Z,28.3507,-96.0058,2.0,251.6642313,21.83872249,-99999.0,'11111222,11111222,99999999' 
TABS,ioos:station:wmo:42049:1,2003-03-02T14:30:00Z,28.3507,-96.0058,2.0,250.3709135,27.62532896,-99999.0,'11111222,11111222,99999999' 
TABS,ioos:station:wmo:42049:1,2003-03-02T15:00:00Z,28.3507,-96.0058,2.0,252.0990214,30.51730657,-99999.0,'11111222,11111222,99999999' 
TABS,ioos:station:wmo:42049:1,2003-03-02T15:30:00Z,28.3507,-96.0058,2.0,256.2997216,32.63858146,-99999.0,'11111222,11111222,99999999' 
TABS,ioos:station:wmo:42049:1,2003-03-02T16:00:00Z,28.3507,-96.0058,2.0,258.8929054,34.83240589,-99999.0,'11111222,11111222,99999999' 
TABS,ioos:station:wmo:42049:1,2003-03-02T16:30:00Z,28.3507,-96.0058,2.0,257.4807545,37.46063667,-99999.0,'11111222,11111222,99999999' 
TABS,ioos:station:wmo:42049:1,2003-03-02T17:00:00Z,28.3507,-96.0058,2.0,262.4848813,38.84361595,-99999.0,'11111222,11111222,99999999' 
TABS,ioos:station:wmo:42049:1,2003-03-02T17:30:00Z,28.3507,-96.0058,2.0,261.4620497,41.76278247,-99999.0,'11111222,11111222,99999999' 
TABS,ioos:station:wmo:42049:1,2003-03-02T18:30:00Z,28.3507,-96.0058,2.0,258.2231838,40.22671376,-99999.0,'11111222,11111222,99999999' 
TABS,ioos:station:wmo:42049:1,2003-03-02T19:00:00Z,28.3507,-96.0058,2.0,184.7634201,11.80076269,-99999.0,'11111222,11111222,99999999' 
TABS,ioos:station:wmo:42049:1,2003-03-02T19:30:00Z,28.3507,-96.0058,2.0,252.3311246,37.82422504,-99999.0,'11111222,11111222,99999999' 
TABS,ioos:station:wmo:42049:1,2003-03-02T20:00:00Z,28.3507,-96.0058,2.0,252.9925988,34.77055363,-99999.0,'11111222,11111222,99999999' 
TABS,ioos:station:wmo:42049:1,2003-03-02T20:30:00Z,28.3507,-96.0058,2.0,247.225611,34.02243084,-99999.0,'11111222,11111222,99999999' 
TABS,ioos:station:wmo:42049:1,2003-03-02T21:00:00Z,28.3507,-96.0058,2.0,249.9602312,34.78604318,-99999.0,'11111222,11111222,99999999' 
TABS,ioos:station:wmo:42049:1,2003-03-02T21:30:00Z,28.3507,-96.0058,2.0,244.6946376,36.4030452,-99999.0,'11111222,11111222,99999999' 
TABS,ioos:station:wmo:42049:1,2003-03-02T22:00:00Z,28.3507,-96.0058,2.0,243.7619088,36.01022633,-99999.0,'11111222,11111222,99999999' 
TABS,ioos:station:wmo:42049:1,2003-03-02T22:30:00Z,28.3507,-96.0058,2.0,245.7910201,36.8726362,-99999.0,'11111222,11111222,99999999' 
TABS,ioos:station:wmo:42049:1,2003-03-02T23:00:00Z,28.3507,-96.0058,2.0,240.1283569,35.98008338,-99999.0,'11111222,11111222,99999999' 
TABS,ioos:station:wmo:42049:1,2003-03-02T23:30:00Z,28.3507,-96.0058,2.0,240.1513008,37.09016716,-99999.0,'11111222,11111222,99999999' 
TABS,ioos:station:wmo:42049:1,2003-03-03T00:00:00Z,28.3507,-96.0058,2.0,236.9199011,35.67201985,-99999.0,'11111222,11111222,99999999' 
TABS,ioos:station:wmo:42049:1,2003-03-03T00:30:00Z,28.3507,-96.0058,2.0,235.7230668,37.66056957,-99999.0,'11111222,11111222,99999999' 
TABS,ioos:station:wmo:42049:1,2003-03-03T01:00:00Z,28.3507,-96.0058,2.0,232.7283817,36.54289671,-99999.0,'11111222,11111222,99999999' 
TABS,ioos:station:wmo:42049:1,2003-03-03T01:30:00Z,28.3507,-96.0058,2.0,235.7972401,35.6686487,-99999.0,'11111222,11111222,99999999' 
TABS,ioos:station:wmo:42049:1,2003-03-03T02:00:00Z,28.3507,-96.0058,2.0,233.932167,38.8458093,-99999.0,'11111222,11111222,99999999' 
TABS,ioos:station:wmo:42049:1,2003-03-03T02:30:00Z,28.3507,-96.0058,2.0,233.7017852,39.86598676,-99999.0,'11111222,11111222,99999999' 
TABS,ioos:station:wmo:42049:1,2003-03-03T03:00:00Z,28.3507,-96.0058,2.0,237.4540045,30.68936298,-99999.0,'11111222,11111222,99999999' 
TABS,ioos:station:wmo:42049:1,2003-03-03T03:30:00Z,28.3507,-96.0058,2.0,228.8222197,31.81988372,-99999.0,'11111222,11111222,99999999' 
TABS,ioos:station:wmo:42049:1,2003-03-03T04:00:00Z,28.3507,-96.0058,2.0,227.1104246,31.86971289,-99999.0,'11111222,11111222,99999999' 
TABS,ioos:station:wmo:42049:1,2003-03-03T04:30:00Z,28.3507,-96.0058,2.0,229.1464156,38.72354581,-99999.0,'11111222,11111222,99999999' 
TABS,ioos:station:wmo:42049:1,2003-03-03T05:00:00Z,28.3507,-96.0058,2.0,225.2742771,42.78752271,-99999.0,'11111222,11111222,99999999' 
TABS,ioos:station:wmo:42049:1,2003-03-03T06:00:00Z,28.3507,-96.0058,2.0,244.2324562,49.77969968,-99999.0,'11111222,11111222,99999999' 
TABS,ioos:station:wmo:42049:1,2003-03-03T06:30:00Z,28.3507,-96.0058,2.0,245.4866506,53.57924412,-99999.0,'11111222,11111222,99999999' 
TABS,ioos:station:wmo:42049:1,2003-03-03T07:00:00Z,28.3507,-96.0058,2.0,246.0559454,52.60711834,-99999.0,'11111222,11111222,99999999' 
TABS,ioos:station:wmo:42049:1,2003-03-03T07:30:00Z,28.3507,-96.0058,2.0,247.16212,50.42267149,-99999.0,'11111222,11111222,99999999' 
TABS,ioos:station:wmo:42049:1,2003-03-03T08:00:00Z,28.3507,-96.0058,2.0,245.6246293,50.20509237,-99999.0,'11111222,11111222,99999999' 
TABS,ioos:station:wmo:42049:1,2003-03-03T08:30:00Z,28.3507,-96.0058,2.0,243.5600776,49.00578333,-99999.0,'11111222,11111222,99999999' 
TABS,ioos:station:wmo:42049:1,2003-03-03T09:00:00Z,28.3507,-96.0058,2.0,242.355151,48.90254083,-99999.0,'11111222,11111222,99999999' 
TABS,ioos:station:wmo:42049:1,2003-03-03T09:30:00Z,28.3507,-96.0058,2.0,241.0820561,46.30327202,-99999.0,'11111222,11111222,99999999' 
TABS,ioos:station:wmo:42049:1,2003-03-03T10:00:00Z,28.3507,-96.0058,2.0,244.0193849,47.32213541,-99999.0,'11111222,11111222,99999999' 
TABS,ioos:station:wmo:42049:1,2003-03-03T10:30:00Z,28.3507,-96.0058,2.0,242.789689,47.28241639,-99999.0,'11111222,11111222,99999999' 
TABS,ioos:station:wmo:42049:1,2003-03-03T11:00:00Z,28.3507,-96.0058,2.0,241.7052985,42.38384716,-99999.0,'11111222,11111222,99999999' 
TABS,ioos:station:wmo:42049:1,2003-03-03T11:30:00Z,28.3507,-96.0058,2.0,246.5696475,40.64098547,-99999.0,'11111222,11111222,99999999' 
TABS,ioos:station:wmo:42049:1,2003-03-03T12:00:00Z,28.3507,-96.0058,2.0,241.5498044,36.44079033,-99999.0,'11111222,11111222,99999999' 
TABS,ioos:station:wmo:42049:1,2003-03-03T12:30:00Z,28.3507,-96.0058,2.0,241.7322699,41.85083034,-99999.0,'11111222,11111222,99999999' 
TABS,ioos:station:wmo:42049:1,2003-03-03T13:00:00Z,28.3507,-96.0058,2.0,238.0160591,39.02382477,-99999.0,'11111222,11111222,99999999' 
TABS,ioos:station:wmo:42049:1,2003-03-03T13:30:00Z,28.3507,-96.0058,2.0,242.8816125,37.99703673,-99999.0,'11111222,11111222,99999999' 
TABS,ioos:station:wmo:42049:1,2003-03-03T14:00:00Z,28.3507,-96.0058,2.0,239.8544599,37.81415211,-99999.0,'11111222,11111222,99999999' 
TABS,ioos:station:wmo:42049:1,2003-03-03T14:30:00Z,28.3507,-96.0058,2.0,240.9497479,35.48398653,-99999.0,'11111222,11111222,99999999' 
TABS,ioos:station:wmo:42049:1,2003-03-03T15:00:00Z,28.3507,-96.0058,2.0,242.406232,38.62311484,-99999.0,'11111222,11111222,99999999' 
TABS,ioos:station:wmo:42049:1,2003-03-03T15:30:00Z,28.3507,-96.0058,2.0,243.5548325,42.6195495,-99999.0,'11111222,11111222,99999999' 
TABS,ioos:station:wmo:42049:1,2003-03-03T16:00:00Z,28.3507,-96.0058,2.0,246.0165604,42.38968978,-99999.0,'11111222,11111222,99999999' 
TABS,ioos:station:wmo:42049:1,2003-03-03T16:30:00Z,28.3507,-96.0058,2.0,246.9209404,38.90355511,-99999.0,'11111222,11111222,99999999' 
TABS,ioos:station:wmo:42049:1,2003-03-03T17:00:00Z,28.3507,-96.0058,2.0,246.4473705,41.69321288,-99999.0,'11111222,11111222,99999999' 
TABS,ioos:station:wmo:42049:1,2003-03-03T17:30:00Z,28.3507,-96.0058,2.0,249.3580761,39.99768618,-99999.0,'11111222,11111222,99999999' 
TABS,ioos:station:wmo:42049:1,2003-03-03T18:00:00Z,28.3507,-96.0058,2.0,247.4094693,37.09615883,-99999.0,'11111222,11111222,99999999' 
TABS,ioos:station:wmo:42049:1,2003-03-03T18:30:00Z,28.3507,-96.0058,2.0,247.5993147,40.14952553,-99999.0,'11111222,11111222,99999999' 
TABS,ioos:station:wmo:42049:1,2003-03-03T19:00:00Z,28.3507,-96.0058,2.0,249.2871243,37.71782072,-99999.0,'11111222,11111222,99999999' 
TABS,ioos:station:wmo:42049:1,2003-03-03T19:30:00Z,28.3507,-96.0058,2.0,242.4003798,35.18355298,-99999.0,'11111222,11111222,99999999' 
TABS,ioos:station:wmo:42049:1,2003-03-03T20:00:00Z,28.3507,-96.0058,2.0,230.317912,35.55080309,-99999.0,'11111222,11111222,99999999' 
TABS,ioos:station:wmo:42049:1,2003-03-03T20:30:00Z,28.3507,-96.0058,2.0,224.0300199,40.53009376,-99999.0,'11111222,11111222,99999999' 
TABS,ioos:station:wmo:42049:1,2003-03-03T21:00:00Z,28.3507,-96.0058,2.0,227.6312706,38.6558676,-99999.0,'11111222,11111222,99999999' 
TABS,ioos:station:wmo:42049:1,2003-03-03T21:30:00Z,28.3507,-96.0058,2.0,225.7908596,29.70131647,-99999.0,'11111222,11111222,99999999' 
TABS,ioos:station:wmo:42049:1,2003-03-03T22:00:00Z,28.3507,-96.0058,2.0,226.0871016,44.71134308,-99999.0,'11111222,11111222,99999999' 
TABS,ioos:station:wmo:42049:1,2003-03-03T22:30:00Z,28.3507,-96.0058,2.0,222.4411802,45.93702211,-99999.0,'11111222,11111222,99999999' 
TABS,ioos:station:wmo:42049:1,2003-03-03T23:00:00Z,28.3507,-96.0058,2.0,239.4651377,42.12123455,-99999.0,'11111222,11111222,99999999' 
TABS,ioos:station:wmo:42049:1,2003-03-04T00:00:00Z,28.3507,-96.0058,2.0,239.9178535,43.45259946,-99999.0,'11111222,11111222,99999999' 
TABS,ioos:station:wmo:42049:1,2003-03-04T00:30:00Z,28.3507,-96.0058,2.0,240.1029132,45.86324454,-99999.0,'11111222,11111222,99999999' 
TABS,ioos:station:wmo:42049:1,2003-03-04T01:00:00Z,28.3507,-96.0058,2.0,235.4539343,38.07332005,-99999.0,'11111222,11111222,99999999' 
TABS,ioos:station:wmo:42049:1,2003-03-04T01:30:00Z,28.3507,-96.0058,2.0,237.3882158,46.99975532,-99999.0,'11111222,11111222,99999999' 
TABS,ioos:station:wmo:42049:1,2003-03-04T02:00:00Z,28.3507,-96.0058,2.0,238.4327565,42.52200019,-99999.0,'11111222,11111222,99999999' 
TABS,ioos:station:wmo:42049:1,2003-03-04T02:30:00Z,28.3507,-96.0058,2.0,238.0056161,42.82497519,-99999.0,'11111222,11111222,99999999' 
TABS,ioos:station:wmo:42049:1,2003-03-04T03:00:00Z,28.3507,-96.0058,2.0,234.9845521,40.65930275,-99999.0,'11111222,11111222,99999999' 
TABS,ioos:station:wmo:42049:1,2003-03-04T03:30:00Z,28.3507,-96.0058,2.0,234.6713798,38.80604592,-99999.0,'11111222,11111222,99999999' 
TABS,ioos:station:wmo:42049:1,2003-03-04T04:00:00Z,28.3507,-96.0058,2.0,242.8994449,38.30551527,-99999.0,'11111222,11111222,99999999' 
TABS,ioos:station:wmo:42049:1,2003-03-04T04:30:00Z,28.3507,-96.0058,2.0,246.6860342,35.32412773,-99999.0,'11111222,11111222,99999999' 
TABS,ioos:station:wmo:42049:1,2003-03-04T05:00:00Z,28.3507,-96.0058,2.0,243.7874247,37.76343205,-99999.0,'11111222,11111222,99999999' 
TABS,ioos:station:wmo:42049:1,2003-03-04T05:30:00Z,28.3507,-96.0058,2.0,233.7831345,33.85020089,-99999.0,'11111222,11111222,99999999' 
TABS,ioos:station:wmo:42049:1,2003-03-04T06:00:00Z,28.3507,-96.0058,2.0,239.2207991,35.60500667,-99999.0,'11111222,11111222,99999999' 
TABS,ioos:station:wmo:42049:1,2003-03-04T06:30:00Z,28.3507,-96.0058,2.0,249.9627817,34.61517008,-99999.0,'11111222,11111222,99999999' 
TABS,ioos:station:wmo:42049:1,2003-03-04T07:00:00Z,28.3507,-96.0058,2.0,244.3669092,29.95833273,-99999.0,'11111222,11111222,99999999' 
TABS,ioos:station:wmo:42049:1,2003-03-04T07:30:00Z,28.3507,-96.0058,2.0,251.8729483,32.91346229,-99999.0,'11111222,11111222,99999999' 
TABS,ioos:station:wmo:42049:1,2003-03-04T08:00:00Z,28.3507,-96.0058,2.0,244.4749249,32.51331573,-99999.0,'11111222,11111222,99999999' 
TABS,ioos:station:wmo:42049:1,2003-03-04T08:30:00Z,28.3507,-96.0058,2.0,248.5088742,36.30397223,-99999.0,'11111222,11111222,99999999' 
TABS,ioos:station:wmo:42049:1,2003-03-04T09:00:00Z,28.3507,-96.0058,2.0,242.5712759,34.43041098,-99999.0,'11111222,11111222,99999999' 
TABS,ioos:station:wmo:42049:1,2003-03-04T09:30:00Z,28.3507,-96.0058,2.0,247.1624277,39.13797389,-99999.0,'11111222,11111222,99999999' 
TABS,ioos:station:wmo:42049:1,2003-03-04T10:00:00Z,28.3507,-96.0058,2.0,245.0711632,39.93010143,-99999.0,'11111222,11111222,99999999' 
TABS,ioos:station:wmo:42049:1,2003-03-04T10:30:00Z,28.3507,-96.0058,2.0,248.7904025,38.8086846,-99999.0,'11111222,11111222,99999999' 
TABS,ioos:station:wmo:42049:1,2003-03-04T11:00:00Z,28.3507,-96.0058,2.0,249.175772,45.82328011,-99999.0,'11111222,11111222,99999999' 
TABS,ioos:station:wmo:42049:1,2003-03-04T11:30:00Z,28.3507,-96.0058,2.0,244.318051,47.85754381,-99999.0,'11111222,11111222,99999999' 
TABS,ioos:station:wmo:42049:1,2003-03-04T12:00:00Z,28.3507,-96.0058,2.0,246.6655924,50.54392644,-99999.0,'11111222,11111222,99999999' 
TABS,ioos:station:wmo:42049:1,2003-03-04T12:30:00Z,28.3507,-96.0058,2.0,234.237902,44.8823941,-99999.0,'11111222,11111222,99999999' 
TABS,ioos:station:wmo:42049:1,2003-03-04T13:00:00Z,28.3507,-96.0058,2.0,237.1306195,41.42094277,-99999.0,'11111222,11111222,99999999' 
TABS,ioos:station:wmo:42049:1,2003-03-04T13:30:00Z,28.3507,-96.0058,2.0,241.6681249,45.4092876,-99999.0,'11111222,11111222,99999999' 
TABS,ioos:station:wmo:42049:1,2003-03-04T14:00:00Z,28.3507,-96.0058,2.0,245.4510944,47.15209645,-99999.0,'11111222,11111222,99999999' 
TABS,ioos:station:wmo:42049:1,2003-03-04T14:30:00Z,28.3507,-96.0058,2.0,240.3064059,39.91067276,-99999.0,'11111222,11111222,99999999' 
TABS,ioos:station:wmo:42049:1,2003-03-04T15:00:00Z,28.3507,-96.0058,2.0,236.8116947,35.13051238,-99999.0,'11111222,11111222,99999999' 
TABS,ioos:station:wmo:42049:1,2003-03-04T15:30:00Z,28.3507,-96.0058,2.0,251.4445569,36.20183421,-99999.0,'11111222,11111222,99999999' 
TABS,ioos:station:wmo:42049:1,2003-03-04T16:00:00Z,28.3507,-96.0058,2.0,263.6225435,51.49864853,-99999.0,'11111222,11111222,99999999' 
TABS,ioos:station:wmo:42049:1,2003-03-04T16:30:00Z,28.3507,-96.0058,2.0,260.7902729,53.98586574,-99999.0,'11111222,11111222,99999999' 
TABS,ioos:station:wmo:42049:1,2003-03-04T17:00:00Z,28.3507,-96.0058,2.0,257.3464119,53.4582987,-99999.0,'11111222,11111222,99999999' 
TABS,ioos:station:wmo:42049:1,2003-03-04T17:30:00Z,28.3507,-96.0058,2.0,245.8579972,41.56542914,-99999.0,'11111222,11111222,99999999' 
TABS,ioos:station:wmo:42049:1,2003-03-04T18:00:00Z,28.3507,-96.0058,2.0,244.3600964,42.36112605,-99999.0,'11111222,11111222,99999999' 
TABS,ioos:station:wmo:42049:1,2003-03-04T18:30:00Z,28.3507,-96.0058,2.0,242.5280513,42.96471576,-99999.0,'11111222,11111222,99999999' 
TABS,ioos:station:wmo:42049:1,2003-03-04T19:00:00Z,28.3507,-96.0058,2.0,249.6974646,46.48802964,-99999.0,'11111222,11111222,99999999' 
TABS,ioos:station:wmo:42049:1,2003-03-04T19:30:00Z,28.3507,-96.0058,2.0,249.0508341,50.54072516,-99999.0,'11111222,11111222,99999999' 
TABS,ioos:station:wmo:42049:1,2003-03-04T20:00:00Z,28.3507,-96.0058,2.0,259.056196,45.98625229,-99999.0,'11111222,11111222,99999999' 